Date String (YYYY-MM-DD hh:mm:ss) UTC,Instrument flags,absolute air pressure of the measurement (hPa),sample flow rate (lpm),inlet stack bypass flow (lpm),air temperature of the measurement (°C),ambient temperature measured by the external sensor (°C),aerosol sample conditioner tube jacket temperature (°C),OPC LED temperature (°C),internal box temperature (°C),relative humidity of the measurement (%),span deviation,mass concentration of particles derived from Lorenz-Mie calculation of OPC scattering (μg/m³),mass concentration of particles derived from Lorenz-Mie calculation of OPC scattering (μg/m³),mass concentration of particles derived from Lorenz-Mie calculation of OPC scattering (μg/m³)
DateTimeUTC,F1_M11,P_M11,Q1_M11,Q2_M11,T1_M11,T2_M11,T3_M11,T4_M11,T5_M11,U1_M11,ZSPAN_M11,X2_M11,X0_M11,X1_M11
2023-08-25 14:00:00,SystemResetWarning,0837.2,5.00,000.00,028.3,027.1,000.0,036.6,030.0,34.2,0000.0,0005.13,0008.72,0004.49
2023-08-25 14:01:00,SystemResetWarning,0837.2,5.00,000.00,028.3,027.2,000.0,036.7,030.1,34.1,0000.0,0005.12,0008.82,0004.48
2023-08-25 14:02:00,SystemResetWarning,0837.2,4.99,000.00,028.4,027.1,000.0,036.7,030.1,34.0,0000.0,0005.10,0008.71,0004.47
2023-08-25 14:03:00,SystemResetWarning,0837.2,4.99,000.00,028.3,025.6,000.0,036.6,029.8,34.1,0000.2,0005.05,0008.57,0004.44
2023-08-25 14:04:00,SystemResetWarning,0837.2,5.01,000.00,028.2,024.7,000.0,036.5,029.6,34.3,0000.9,0004.97,0008.39,0004.40
2023-08-25 14:05:00,SystemResetWarning,0837.2,5.01,000.00,028.2,024.8,000.0,036.5,029.5,34.6,0000.6,0004.93,0008.28,0004.36
2023-08-25 14:06:00,SystemResetWarning,0837.2,4.99,000.00,028.1,025.1,000.0,036.5,029.5,34.9,0000.7,0004.91,0008.33,0004.33
2023-08-25 14:07:00,SystemResetWarning,0837.2,5.00,000.00,028.1,025.4,000.0,036.6,029.6,34.9,0000.9,0004.88,0008.41,0004.31
2023-08-25 14:08:00,SystemResetWarning,0837.4,5.00,000.00,028.1,025.8,000.0,036.6,029.6,34.8,0001.1,0004.86,0009.35,0004.30
2023-08-25 14:09:00,SystemResetWarning,0837.2,5.01,000.00,028.1,026.1,000.0,036.6,029.7,34.8,0001.1,0004.88,0009.84,0004.29
2023-08-25 14:10:00,SystemResetWarning,0837.3,5.00,000.00,028.2,026.3,000.0,036.6,029.8,34.8,0000.8,0004.90,0010.24,0004.29
2023-08-25 14:11:00,SystemResetWarning,0837.3,5.00,000.00,028.2,026.6,000.0,036.6,029.8,34.8,0000.5,0004.92,0010.17,0004.28
2023-08-25 14:12:00,SystemResetWarning,0837.3,5.00,000.00,028.2,026.8,000.0,036.6,029.9,34.7,0000.8,0004.93,0010.20,0004.26
2023-08-25 14:13:00,SystemResetWarning,0837.3,4.99,000.00,028.3,026.9,000.0,036.7,030.0,34.7,0000.5,0004.94,0010.94,0004.25
2023-08-25 14:14:00,SystemResetWarning,0837.3,4.99,000.00,028.3,027.1,000.0,036.7,030.0,34.6,0000.3,0004.96,0011.17,0004.23
2023-08-25 14:15:00,SystemResetWarning,0837.4,5.00,000.00,028.4,027.2,000.0,036.7,030.1,34.4,0000.1,0004.96,0011.20,0004.24
2023-08-25 14:16:00,SystemResetWarning,0837.4,5.00,000.00,028.4,027.3,000.0,036.7,030.1,34.5,0000.2,0004.95,0011.24,0004.23
2023-08-25 14:17:00,SystemResetWarning,0837.4,4.99,000.00,028.4,026.2,000.0,036.6,030.0,34.5,0000.6,0004.91,0011.51,0004.21
2023-08-25 14:18:00,SystemResetWarning,0837.4,5.01,000.00,028.3,024.9,000.0,036.5,029.7,34.6,0000.5,0004.87,0011.54,0004.19
2023-08-25 14:19:00,SystemResetWarning,0837.4,5.01,000.00,028.2,024.7,000.0,036.5,029.6,34.8,-000.0,0004.85,0010.58,0004.16
2023-08-25 14:20:00,SystemResetWarning,0837.5,5.01,000.00,028.1,024.9,000.0,036.5,029.5,34.9,-000.0,0004.81,0010.03,0004.13
2023-08-25 14:21:00,SystemResetWarning,0837.5,4.98,000.00,028.1,025.3,000.0,036.6,029.6,35.0,-000.4,0004.78,0009.70,0004.10
2023-08-25 14:22:00,SystemResetWarning,0837.5,5.02,000.00,028.2,025.6,000.0,036.6,029.7,35.1,-000.9,0004.72,0009.66,0004.07
2023-08-25 14:23:00,SystemResetWarning,0837.6,4.98,000.00,028.4,025.9,000.0,036.6,029.8,34.5,-000.6,0004.67,0009.88,0004.04
2023-08-25 14:24:00,SystemResetWarning,0837.6,5.00,000.00,028.5,026.2,000.0,036.6,029.9,34.2,-000.4,0004.60,0009.16,0004.01
2023-08-25 14:25:00,SystemResetWarning,0837.6,5.01,000.00,028.7,026.5,000.0,036.7,030.0,34.0,-000.7,0004.56,0008.89,0003.99
2023-08-25 14:26:00,SystemResetWarning,0837.6,4.99,000.00,028.7,026.7,000.0,036.7,030.0,33.9,-000.8,0004.52,0008.81,0003.96
2023-08-25 14:27:00,SystemResetWarning,0837.6,5.00,000.00,028.8,026.9,000.0,036.8,030.1,33.8,-000.9,0004.49,0008.80,0003.94
2023-08-25 14:28:00,SystemResetWarning,0837.6,5.00,000.00,028.8,027.0,000.0,036.8,030.1,33.6,-001.1,0004.47,0008.41,0003.92
2023-08-25 14:29:00,SystemResetWarning,0837.6,5.00,000.00,028.9,027.2,000.0,036.9,030.2,33.6,-000.0,0004.47,0008.28,0003.91
2023-08-25 14:30:00,SystemResetWarning,0837.7,4.99,000.00,028.9,026.7,000.0,036.9,030.1,33.4,-000.6,0004.46,0008.29,0003.90
2023-08-25 14:31:00,SystemResetWarning,0837.6,5.00,000.00,028.9,025.2,000.0,036.8,029.8,33.5,0000.0,0004.47,0008.38,0003.90
2023-08-25 14:32:00,SystemResetWarning,0837.6,5.00,000.00,028.8,024.6,000.0,036.7,029.7,33.6,0000.0,0004.48,0008.48,0003.89
2023-08-25 14:33:00,SystemResetWarning,0837.6,5.01,000.00,028.7,024.8,000.0,036.8,029.6,33.9,0000.0,0004.48,0008.43,0003.90
2023-08-25 14:34:00,SystemResetWarning,0837.7,5.01,000.00,028.6,025.1,000.0,036.8,029.6,33.9,0000.0,0004.46,0008.23,0003.89
2023-08-25 14:35:00,SystemResetWarning,0837.7,5.00,000.00,028.6,025.5,000.0,036.9,029.7,34.0,0000.0,0004.50,0008.83,0003.89
2023-08-25 14:36:00,SystemResetWarning,0837.7,5.00,000.00,028.6,025.8,000.0,036.9,029.8,34.0,0000.0,0004.52,0009.09,0003.91
2023-08-25 14:37:00,SystemResetWarning,0837.8,5.00,000.00,028.7,026.1,000.0,036.9,029.9,34.2,0000.0,0004.56,0009.23,0003.92
2023-08-25 14:38:00,SystemResetWarning,0837.8,4.99,000.00,028.7,026.4,000.0,036.9,029.9,34.2,0000.0,0004.58,0009.14,0003.93
2023-08-25 14:39:00,SystemResetWarning,0837.8,4.99,000.00,028.7,026.6,000.0,036.9,030.0,34.0,0000.0,0004.58,0009.15,0003.94
2023-08-25 14:40:00,SystemResetWarning,0837.8,5.00,000.00,028.7,026.8,000.0,037.0,030.0,33.9,0000.0,0004.56,0009.04,0003.93
2023-08-25 14:41:00,SystemResetWarning,0837.8,5.00,000.00,028.7,027.0,000.0,037.0,030.1,34.1,0000.0,0004.58,0009.12,0003.94
2023-08-25 14:42:00,SystemResetWarning,0837.9,5.00,000.00,028.8,027.1,000.0,037.0,030.1,34.1,0000.0,0004.58,0009.14,0003.93
2023-08-25 14:43:00,SystemResetWarning,0838.0,5.00,000.00,028.8,027.2,000.0,037.0,030.2,34.1,0000.0,0004.63,0009.15,0003.93
2023-08-25 14:44:00,SystemResetWarning,0838.0,5.00,000.00,028.8,027.2,000.0,037.0,030.2,34.1,0000.0,0004.61,0009.14,0003.93
2023-08-25 14:45:00,SystemResetWarning,0838.0,4.99,000.00,028.8,025.7,000.0,036.9,030.0,34.2,0000.0,0004.59,0008.89,0003.93
2023-08-25 14:46:00,SystemResetWarning,0837.8,5.00,000.00,028.7,024.1,000.0,036.8,029.7,34.5,0000.0,0004.57,0008.37,0003.94
2023-08-25 14:47:00,SystemResetWarning,0837.8,5.00,000.00,028.6,023.8,000.0,036.7,029.5,34.6,0000.0,0004.55,0008.02,0003.94
2023-08-25 14:48:00,SystemResetWarning,0837.8,4.99,000.00,028.4,024.0,000.0,036.8,029.4,35.0,0000.0,0004.56,0008.01,0003.93
2023-08-25 14:49:00,SystemResetWarning,0837.7,5.03,000.00,028.4,024.4,000.0,036.8,029.4,35.3,0000.0,0004.55,0008.00,0003.93
2023-08-25 14:50:00,SystemResetWarning,0837.9,5.00,000.00,028.7,024.9,000.0,036.8,029.7,34.9,0000.0,0004.58,0008.12,0003.94
2023-08-25 14:51:00,SystemResetWarning,0838.0,4.99,000.00,028.9,025.3,000.0,036.8,029.8,34.4,0000.0,0004.63,0008.34,0003.96
2023-08-25 14:52:00,SystemResetWarning,0838.1,5.00,000.00,029.0,025.7,000.0,036.8,029.9,34.2,0000.0,0004.62,0008.38,0003.96
2023-08-25 14:53:00,SystemResetWarning,0838.0,5.01,000.00,029.1,026.0,000.0,036.9,029.9,34.0,0000.0,0004.60,0008.38,0003.96
2023-08-25 14:54:00,SystemResetWarning,0838.0,5.00,000.00,029.2,026.3,000.0,037.0,030.0,34.0,0000.0,0004.53,0008.75,0003.96
2023-08-25 14:55:00,SystemResetWarning,0837.9,5.00,000.00,029.3,026.5,000.0,037.0,030.0,34.0,0000.0,0004.50,0008.69,0003.95
2023-08-25 14:56:00,SystemResetWarning,0838.0,5.00,000.00,029.3,026.7,000.0,037.1,030.1,34.0,0000.0,0004.51,0008.66,0003.95
2023-08-25 14:57:00,SystemResetWarning,0838.0,5.00,000.00,029.3,026.9,000.0,037.2,030.1,34.1,0000.0,0004.50,0008.53,0003.95
2023-08-25 14:58:00,SystemResetWarning,0838.1,5.00,000.00,029.4,027.0,000.0,037.2,030.2,34.1,0000.0,0004.52,0008.59,0003.95
2023-08-25 14:59:00,SystemResetWarning,0838.2,4.99,000.00,029.4,027.2,000.0,037.3,030.2,34.2,0000.0,0004.52,0008.56,0003.97
